Year,Month,Day,Hour,Minute,Value (Times are PST for barometer in hPa)
2012,01,21,00,00,981.78
2012,01,21,00,01,981.75
2012,01,21,00,02,981.75
2012,01,21,00,03,981.75
2012,01,21,00,04,981.71
2012,01,21,00,05,981.75
2012,01,21,00,06,981.71
2012,01,21,00,07,981.68
2012,01,21,00,08,981.65
2012,01,21,00,09,981.68
2012,01,21,00,10,981.65
2012,01,21,00,11,981.68
2012,01,21,00,12,981.61
2012,01,21,00,13,981.58
2012,01,21,00,14,981.55
2012,01,21,00,15,981.61
2012,01,21,00,16,981.61
2012,01,21,00,17,981.61
2012,01,21,00,18,981.58
2012,01,21,00,19,981.61
2012,01,21,00,20,981.58
2012,01,21,00,21,981.58
2012,01,21,00,22,981.58
2012,01,21,00,23,981.55
2012,01,21,00,24,981.58
2012,01,21,00,25,981.55
2012,01,21,00,26,981.55
2012,01,21,00,27,981.51
2012,01,21,00,28,981.51
2012,01,21,00,29,981.55
2012,01,21,00,30,981.55
2012,01,21,00,31,981.51
2012,01,21,00,32,981.48
2012,01,21,00,33,981.41
2012,01,21,00,34,981.41
2012,01,21,00,35,981.38
2012,01,21,00,36,981.41
2012,01,21,00,37,981.38
2012,01,21,00,38,981.38
2012,01,21,00,39,981.34
2012,01,21,00,40,981.24
2012,01,21,00,41,981.21
2012,01,21,00,42,981.17
2012,01,21,00,43,981.17
2012,01,21,00,44,981.10
2012,01,21,00,45,981.04
2012,01,21,00,46,981.00
2012,01,21,00,47,980.97
2012,01,21,00,48,980.97
2012,01,21,00,49,980.94
2012,01,21,00,50,980.97
2012,01,21,00,51,980.87
2012,01,21,00,52,980.83
2012,01,21,00,53,980.87
2012,01,21,00,54,980.90
2012,01,21,00,55,980.77
2012,01,21,00,56,980.83
2012,01,21,00,57,980.87
2012,01,21,00,58,980.90
2012,01,21,00,59,980.87
2012,01,21,01,00,980.90
2012,01,21,01,01,980.90
2012,01,21,01,02,980.94
2012,01,21,01,03,980.94
2012,01,21,01,04,980.94
2012,01,21,01,05,980.90
2012,01,21,01,06,980.87
2012,01,21,01,07,980.94
2012,01,21,01,08,980.90
2012,01,21,01,09,980.90
2012,01,21,01,10,980.83
2012,01,21,01,11,980.87
2012,01,21,01,12,980.83
2012,01,21,01,13,980.83
2012,01,21,01,14,980.80
2012,01,21,01,15,980.80
2012,01,21,01,16,980.80
2012,01,21,01,17,980.73
2012,01,21,01,18,980.77
2012,01,21,01,19,980.77
2012,01,21,01,20,980.73
2012,01,21,01,21,980.70
2012,01,21,01,22,980.63
2012,01,21,01,23,980.66
2012,01,21,01,24,980.66
2012,01,21,01,25,980.59
2012,01,21,01,26,980.43
2012,01,21,01,27,980.53
2012,01,21,01,28,980.50
2012,01,21,01,29,980.53
2012,01,21,01,30,980.46
2012,01,21,01,31,980.46
2012,01,21,01,32,980.43
2012,01,21,01,33,980.50
2012,01,21,01,34,980.50
2012,01,21,01,35,980.43
2012,01,21,01,36,980.50
2012,01,21,01,37,980.42
2012,01,21,01,38,980.29
2012,01,21,01,39,980.39
2012,01,21,01,40,980.36
2012,01,21,01,41,980.29
2012,01,21,01,42,980.26
2012,01,21,01,43,980.22
2012,01,21,01,44,980.26
2012,01,21,01,45,980.37
2012,01,21,01,46,980.49
2012,01,21,01,47,980.39
2012,01,21,01,48,980.46
2012,01,21,01,49,980.46
2012,01,21,01,50,980.53
2012,01,21,01,51,980.50
2012,01,21,01,52,980.46
2012,01,21,01,53,980.46
2012,01,21,01,54,980.50
2012,01,21,01,55,980.50
2012,01,21,01,56,980.50
2012,01,21,01,57,980.53
2012,01,21,01,58,980.56
2012,01,21,01,59,980.53
2012,01,21,02,00,980.56
2012,01,21,02,01,980.53
2012,01,21,02,02,980.53
2012,01,21,02,03,980.50
2012,01,21,02,04,980.53
2012,01,21,02,05,980.43
2012,01,21,02,06,980.46
2012,01,21,02,07,980.46
2012,01,21,02,08,980.43
2012,01,21,02,09,980.46
2012,01,21,02,10,980.50
2012,01,21,02,11,980.53
2012,01,21,02,12,980.53
2012,01,21,02,13,980.60
2012,01,21,02,14,980.60
2012,01,21,02,15,980.63
2012,01,21,02,16,980.66
2012,01,21,02,17,980.66
2012,01,21,02,18,980.66
2012,01,21,02,19,980.66
2012,01,21,02,20,980.66
2012,01,21,02,21,980.70
2012,01,21,02,22,980.66
2012,01,21,02,23,980.70
2012,01,21,02,24,980.73
2012,01,21,02,25,980.70
2012,01,21,02,26,980.70
2012,01,21,02,27,980.70
2012,01,21,02,28,980.70
2012,01,21,02,29,980.73
2012,01,21,02,30,980.73
2012,01,21,02,31,980.73
2012,01,21,02,32,980.73
2012,01,21,02,33,980.77
2012,01,21,02,34,980.77
2012,01,21,02,35,980.80
2012,01,21,02,36,980.77
2012,01,21,02,37,980.77
2012,01,21,02,38,980.77
2012,01,21,02,39,980.83
2012,01,21,02,40,980.80
2012,01,21,02,41,980.80
2012,01,21,02,42,980.83
2012,01,21,02,43,980.80
2012,01,21,02,44,980.83
2012,01,21,02,45,980.87
2012,01,21,02,46,980.90
2012,01,21,02,47,980.90
2012,01,21,02,48,980.97
2012,01,21,02,49,980.97
2012,01,21,02,50,981.04
2012,01,21,02,51,981.00
2012,01,21,02,52,981.00
2012,01,21,02,53,981.07
2012,01,21,02,54,981.07
2012,01,21,02,55,981.10
2012,01,21,02,56,981.10
2012,01,21,02,57,981.10
2012,01,21,02,58,981.14
2012,01,21,02,59,981.14
2012,01,21,03,00,981.17
2012,01,21,03,01,981.17
2012,01,21,03,02,981.17
2012,01,21,03,03,981.21
2012,01,21,03,04,981.27
2012,01,21,03,05,981.21
2012,01,21,03,06,981.21
2012,01,21,03,07,981.24
2012,01,21,03,08,981.24
2012,01,21,03,09,981.27
2012,01,21,03,10,981.24
2012,01,21,03,11,981.24
2012,01,21,03,12,981.21
2012,01,21,03,13,981.21
2012,01,21,03,14,981.21
2012,01,21,03,15,981.21
2012,01,21,03,16,981.24
2012,01,21,03,17,981.24
2012,01,21,03,18,981.24
2012,01,21,03,19,981.24
2012,01,21,03,20,981.24
2012,01,21,03,21,981.24
2012,01,21,03,22,981.24
2012,01,21,03,23,981.24
2012,01,21,03,24,981.27
2012,01,21,03,25,981.24
2012,01,21,03,26,981.27
2012,01,21,03,27,981.24
2012,01,21,03,28,981.21
2012,01,21,03,29,981.21
2012,01,21,03,30,981.17
2012,01,21,03,31,981.14
2012,01,21,03,32,981.14
2012,01,21,03,33,981.14
2012,01,21,03,34,981.14
2012,01,21,03,35,981.14
2012,01,21,03,36,981.10
2012,01,21,03,37,981.14
2012,01,21,03,38,981.10
2012,01,21,03,39,981.07
2012,01,21,03,40,981.10
2012,01,21,03,41,981.07
2012,01,21,03,42,981.10
2012,01,21,03,43,981.10
2012,01,21,03,44,981.10
2012,01,21,03,45,981.17
2012,01,21,03,46,981.17
2012,01,21,03,47,981.24
2012,01,21,03,48,981.21
2012,01,21,03,49,981.30
2012,01,21,03,50,981.31
2012,01,21,03,51,981.38
2012,01,21,03,52,981.41
2012,01,21,03,53,981.34
2012,01,21,03,54,981.34
2012,01,21,03,55,981.38
2012,01,21,03,56,981.41
2012,01,21,03,57,981.44
2012,01,21,03,58,981.38
2012,01,21,03,59,981.41
2012,01,21,04,00,981.41
2012,01,21,04,01,981.44
2012,01,21,04,02,981.48
2012,01,21,04,03,981.48
2012,01,21,04,04,981.48
2012,01,21,04,05,981.48
2012,01,21,04,06,981.48
2012,01,21,04,07,981.44
2012,01,21,04,08,981.48
2012,01,21,04,09,981.48
2012,01,21,04,10,981.44
2012,01,21,04,11,981.31
2012,01,21,04,12,981.27
2012,01,21,04,13,981.31
2012,01,21,04,14,981.31
2012,01,21,04,15,981.34
2012,01,21,04,16,981.24
2012,01,21,04,17,981.24
2012,01,21,04,18,981.31
2012,01,21,04,19,981.34
2012,01,21,04,20,981.31
2012,01,21,04,21,981.38
2012,01,21,04,22,981.34
2012,01,21,04,23,981.38
2012,01,21,04,24,981.38
2012,01,21,04,25,981.41
2012,01,21,04,26,981.38
2012,01,21,04,27,981.41
2012,01,21,04,28,981.41
2012,01,21,04,29,981.44
2012,01,21,04,30,981.41
2012,01,21,04,31,981.44
2012,01,21,04,32,981.48
2012,01,21,04,33,981.51
2012,01,21,04,34,981.55
2012,01,21,04,35,981.61
2012,01,21,04,36,981.61
2012,01,21,04,37,981.55
2012,01,21,04,38,981.65
2012,01,21,04,39,981.71
2012,01,21,04,40,981.71
2012,01,21,04,41,981.75
2012,01,21,04,42,981.78
2012,01,21,04,43,981.82
2012,01,21,04,44,981.82
2012,01,21,04,45,981.78
2012,01,21,04,46,981.78
2012,01,21,04,47,981.82
2012,01,21,04,48,981.88
2012,01,21,04,49,981.98
2012,01,21,04,50,982.02
2012,01,21,04,51,981.95
2012,01,21,04,52,982.19
2012,01,21,04,53,982.28
2012,01,21,04,54,982.29
2012,01,21,04,55,982.26
2012,01,21,04,56,982.32
2012,01,21,04,57,982.32
2012,01,21,04,58,982.36
2012,01,21,04,59,982.39
2012,01,21,05,00,982.36
2012,01,21,05,01,982.46
2012,01,21,05,02,982.46
2012,01,21,05,03,982.49
2012,01,21,05,04,982.56
2012,01,21,05,05,982.59
2012,01,21,05,06,982.63
2012,01,21,05,07,982.66
2012,01,21,05,08,982.70
2012,01,21,05,09,982.73
2012,01,21,05,10,982.80
2012,01,21,05,11,982.80
2012,01,21,05,12,982.87
2012,01,21,05,13,982.87
2012,01,21,05,14,982.90
2012,01,21,05,15,982.93
2012,01,21,05,16,982.97
2012,01,21,05,17,983.04
2012,01,21,05,18,983.07
2012,01,21,05,19,983.10
2012,01,21,05,20,983.17
2012,01,21,05,21,983.24
2012,01,21,05,22,983.27
2012,01,21,05,23,983.34
2012,01,21,05,24,983.31
2012,01,21,05,25,983.41
2012,01,21,05,26,983.41
2012,01,21,05,27,983.44
2012,01,21,05,28,983.41
2012,01,21,05,29,983.48
2012,01,21,05,30,983.48
2012,01,21,05,31,983.48
2012,01,21,05,32,983.58
2012,01,21,05,33,983.64
2012,01,21,05,34,983.68
2012,01,21,05,35,983.64
2012,01,21,05,36,983.71
2012,01,21,05,37,983.75
2012,01,21,05,38,983.78
2012,01,21,05,39,983.78
2012,01,21,05,40,983.78
2012,01,21,05,41,983.81
2012,01,21,05,42,983.81
2012,01,21,05,43,983.88
2012,01,21,05,44,983.92
2012,01,21,05,45,983.88
2012,01,21,05,46,983.81
2012,01,21,05,47,983.92
2012,01,21,05,48,983.88
2012,01,21,05,49,983.92
2012,01,21,05,50,983.95
2012,01,21,05,51,984.02
2012,01,21,05,52,984.05
2012,01,21,05,53,984.08
2012,01,21,05,54,984.05
2012,01,21,05,55,984.15
2012,01,21,05,56,984.19
2012,01,21,05,57,984.31
2012,01,21,05,58,984.36
2012,01,21,05,59,984.42
2012,01,21,06,00,984.46
2012,01,21,06,01,984.46
2012,01,21,06,02,984.62
2012,01,21,06,03,984.59
2012,01,21,06,04,984.72
2012,01,21,06,05,984.76
2012,01,21,06,06,984.80
2012,01,21,06,07,984.80
2012,01,21,06,08,984.83
2012,01,21,06,09,984.83
2012,01,21,06,10,984.86
2012,01,21,06,11,984.93
2012,01,21,06,12,985.07
2012,01,21,06,13,985.03
2012,01,21,06,14,985.07
2012,01,21,06,15,985.10
2012,01,21,06,16,985.17
2012,01,21,06,17,985.10
2012,01,21,06,18,985.13
2012,01,21,06,19,985.20
2012,01,21,06,20,985.24
2012,01,21,06,21,985.27
2012,01,21,06,22,985.30
2012,01,21,06,23,985.27
2012,01,21,06,24,985.36
2012,01,21,06,25,985.25
2012,01,21,06,26,985.30
2012,01,21,06,27,985.37
2012,01,21,06,28,985.37
2012,01,21,06,29,985.34
2012,01,21,06,30,985.60
2012,01,21,06,31,985.57
2012,01,21,06,32,985.64
2012,01,21,06,33,985.68
2012,01,21,06,34,985.64
2012,01,21,06,35,985.71
2012,01,21,06,36,985.71
2012,01,21,06,37,985.71
2012,01,21,06,38,985.78
2012,01,21,06,39,985.78
2012,01,21,06,40,985.78
2012,01,21,06,41,985.81
2012,01,21,06,42,985.91
2012,01,21,06,43,985.85
2012,01,21,06,44,985.91
2012,01,21,06,45,985.98
2012,01,21,06,46,986.12
2012,01,21,06,47,986.22
2012,01,21,06,48,986.22
2012,01,21,06,49,986.29
2012,01,21,06,50,986.32
2012,01,21,06,51,986.41
2012,01,21,06,52,986.49
2012,01,21,06,53,986.46
2012,01,21,06,54,986.55
2012,01,21,06,55,986.62
2012,01,21,06,56,986.79
2012,01,21,06,57,986.76
2012,01,21,06,58,986.79
2012,01,21,06,59,986.83
2012,01,21,07,00,986.90
2012,01,21,07,01,986.90
2012,01,21,07,02,986.96
2012,01,21,07,03,986.96
2012,01,21,07,04,986.96
2012,01,21,07,05,987.03
2012,01,21,07,06,987.00
2012,01,21,07,07,987.12
2012,01,21,07,08,987.20
2012,01,21,07,09,987.27
2012,01,21,07,10,987.40
2012,01,21,07,11,987.40
2012,01,21,07,12,987.44
2012,01,21,07,13,987.44
2012,01,21,07,14,987.51
2012,01,21,07,15,987.47
2012,01,21,07,16,987.54
2012,01,21,07,17,987.57
2012,01,21,07,18,987.64
2012,01,21,07,19,987.80
2012,01,21,07,20,987.91
2012,01,21,07,21,987.91
2012,01,21,07,22,988.01
2012,01,21,07,23,988.11
2012,01,21,07,24,988.15
2012,01,21,07,25,988.27
2012,01,21,07,26,988.35
2012,01,21,07,27,988.39
2012,01,21,07,28,988.39
2012,01,21,07,29,988.45
2012,01,21,07,30,988.52
2012,01,21,07,31,988.59
2012,01,21,07,32,988.62
2012,01,21,07,33,988.69
2012,01,21,07,34,988.69
2012,01,21,07,35,988.72
2012,01,21,07,36,988.76
2012,01,21,07,37,988.79
2012,01,21,07,38,988.83
2012,01,21,07,39,988.86
2012,01,21,07,40,988.86
2012,01,21,07,41,988.89
2012,01,21,07,42,988.96
2012,01,21,07,43,989.03
2012,01,21,07,44,989.13
2012,01,21,07,45,989.20
2012,01,21,07,46,989.27
2012,01,21,07,47,989.30
2012,01,21,07,48,989.37
2012,01,21,07,49,989.44
2012,01,21,07,50,989.44
2012,01,21,07,51,989.50
2012,01,21,07,52,989.50
2012,01,21,07,53,989.54
2012,01,21,07,54,989.50
2012,01,21,07,55,989.54
2012,01,21,07,56,989.60
2012,01,21,07,57,989.64
2012,01,21,07,58,989.71
2012,01,21,07,59,989.71
2012,01,21,08,00,989.74
2012,01,21,08,01,989.77
2012,01,21,08,02,989.84
2012,01,21,08,03,989.94
2012,01,21,08,04,990.01
2012,01,21,08,05,990.04
2012,01,21,08,06,990.11
2012,01,21,08,07,990.18
2012,01,21,08,08,990.21
2012,01,21,08,09,990.18
2012,01,21,08,10,990.21
2012,01,21,08,11,990.18
2012,01,21,08,12,990.21
2012,01,21,08,13,990.32
2012,01,21,08,14,990.32
2012,01,21,08,15,990.35
2012,01,21,08,16,990.49
2012,01,21,08,17,990.52
2012,01,21,08,18,990.55
2012,01,21,08,19,990.55
2012,01,21,08,20,990.62
2012,01,21,08,21,990.62
2012,01,21,08,22,990.72
2012,01,21,08,23,990.72
2012,01,21,08,24,990.69
2012,01,21,08,25,990.72
2012,01,21,08,26,990.79
2012,01,21,08,27,990.86
2012,01,21,08,28,990.93
2012,01,21,08,29,990.96
2012,01,21,08,30,991.03
2012,01,21,08,31,991.03
2012,01,21,08,32,991.06
2012,01,21,08,33,991.09
2012,01,21,08,34,991.16
2012,01,21,08,35,991.20
2012,01,21,08,36,991.16
2012,01,21,08,37,991.16
2012,01,21,08,38,991.30
2012,01,21,08,39,991.26
2012,01,21,08,40,991.30
2012,01,21,08,41,991.33
2012,01,21,08,42,991.40
2012,01,21,08,43,991.40
2012,01,21,08,44,991.43
2012,01,21,08,45,991.40
2012,01,21,08,46,991.47
2012,01,21,08,47,991.43
2012,01,21,08,48,991.40
2012,01,21,08,49,991.43
2012,01,21,08,50,991.43
2012,01,21,08,51,991.47
2012,01,21,08,52,991.47
2012,01,21,08,53,991.43
2012,01,21,08,54,991.43
2012,01,21,08,55,991.43
2012,01,21,08,56,991.43
2012,01,21,08,57,991.43
2012,01,21,08,58,991.43
2012,01,21,08,59,991.47
2012,01,21,09,00,991.47
2012,01,21,09,01,991.53
2012,01,21,09,02,991.57
2012,01,21,09,03,991.53
2012,01,21,09,04,991.57
2012,01,21,09,05,991.60
2012,01,21,09,06,991.64
2012,01,21,09,07,991.67
2012,01,21,09,08,991.64
2012,01,21,09,09,991.70
2012,01,21,09,10,991.74
2012,01,21,09,11,991.77
2012,01,21,09,12,991.90
2012,01,21,09,13,991.94
2012,01,21,09,14,991.98
2012,01,21,09,15,991.94
2012,01,21,09,16,991.98
2012,01,21,09,17,992.01
2012,01,21,09,18,992.01
2012,01,21,09,19,992.04
2012,01,21,09,20,992.20
2012,01,21,09,21,992.14
2012,01,21,09,22,992.14
2012,01,21,09,23,992.14
2012,01,21,09,24,992.18
2012,01,21,09,25,992.28
2012,01,21,09,26,992.28
2012,01,21,09,27,992.28
2012,01,21,09,28,992.25
2012,01,21,09,29,992.21
2012,01,21,09,30,992.25
2012,01,21,09,31,992.21
2012,01,21,09,32,992.21
2012,01,21,09,33,992.25
2012,01,21,09,34,992.28
2012,01,21,09,35,992.31
2012,01,21,09,36,992.35
2012,01,21,09,37,992.35
2012,01,21,09,38,992.38
2012,01,21,09,39,992.38
2012,01,21,09,40,992.42
2012,01,21,09,41,992.48
2012,01,21,09,42,992.48
2012,01,21,09,43,992.48
2012,01,21,09,44,992.52
2012,01,21,09,45,992.65
2012,01,21,09,46,992.69
2012,01,21,09,47,992.75
2012,01,21,09,48,992.82
2012,01,21,09,49,992.82
2012,01,21,09,50,992.82
2012,01,21,09,51,992.86
2012,01,21,09,52,992.92
2012,01,21,09,53,992.92
2012,01,21,09,54,992.89
2012,01,21,09,55,992.89
2012,01,21,09,56,993.05
2012,01,21,09,57,993.09
2012,01,21,09,58,993.06
2012,01,21,09,59,993.06
2012,01,21,10,00,993.16
2012,01,21,10,01,993.09
2012,01,21,10,02,993.16
2012,01,21,10,03,993.13
2012,01,21,10,04,993.13
2012,01,21,10,05,993.16
2012,01,21,10,06,993.23
2012,01,21,10,07,993.19
2012,01,21,10,08,993.19
2012,01,21,10,09,993.19
2012,01,21,10,10,993.19
2012,01,21,10,11,993.19
2012,01,21,10,12,993.23
2012,01,21,10,13,993.23
2012,01,21,10,14,993.26
2012,01,21,10,15,993.23
2012,01,21,10,16,993.23
2012,01,21,10,17,993.30
2012,01,21,10,18,993.43
2012,01,21,10,19,993.47
2012,01,21,10,20,993.33
2012,01,21,10,21,993.23
2012,01,21,10,22,993.23
2012,01,21,10,23,993.26
2012,01,21,10,24,993.26
2012,01,21,10,25,993.33
2012,01,21,10,26,993.40
2012,01,21,10,27,993.36
2012,01,21,10,28,993.47
2012,01,21,10,29,993.47
2012,01,21,10,30,993.53
2012,01,21,10,31,993.60
2012,01,21,10,32,993.57
2012,01,21,10,33,993.67
2012,01,21,10,34,993.60
2012,01,21,10,35,993.60
2012,01,21,10,36,993.57
2012,01,21,10,37,993.57
2012,01,21,10,38,993.57
2012,01,21,10,39,993.67
2012,01,21,10,40,993.67
2012,01,21,10,41,993.67
2012,01,21,10,42,993.60
2012,01,21,10,43,993.77
2012,01,21,10,44,993.84
2012,01,21,10,45,993.84
2012,01,21,10,46,993.80
2012,01,21,10,47,993.77
2012,01,21,10,48,993.80
2012,01,21,10,49,993.84
2012,01,21,10,50,993.87
2012,01,21,10,51,993.77
2012,01,21,10,52,993.84
2012,01,21,10,53,993.80
2012,01,21,10,54,993.80
2012,01,21,10,55,993.84
2012,01,21,10,56,993.77
2012,01,21,10,57,993.87
2012,01,21,10,58,993.87
2012,01,21,10,59,993.87
2012,01,21,11,00,993.94
2012,01,21,11,01,993.97
2012,01,21,11,02,994.01
2012,01,21,11,03,994.07
2012,01,21,11,04,994.11
2012,01,21,11,05,994.11
2012,01,21,11,06,994.21
2012,01,21,11,07,994.14
2012,01,21,11,08,994.18
2012,01,21,11,09,994.18
2012,01,21,11,10,994.21
2012,01,21,11,11,994.31
2012,01,21,11,12,994.31
2012,01,21,11,13,994.38
2012,01,21,11,14,994.38
2012,01,21,11,15,994.35
2012,01,21,11,16,994.35
2012,01,21,11,17,994.35
2012,01,21,11,18,994.28
2012,01,21,11,19,994.28
2012,01,21,11,20,994.31
2012,01,21,11,21,994.28
2012,01,21,11,22,994.24
2012,01,21,11,23,994.24
2012,01,21,11,24,994.28
2012,01,21,11,25,994.24
2012,01,21,11,26,994.24
2012,01,21,11,27,994.31
2012,01,21,11,28,994.31
2012,01,21,11,29,994.31
2012,01,21,11,30,994.31
2012,01,21,11,31,994.31
2012,01,21,11,32,994.35
2012,01,21,11,33,994.31
2012,01,21,11,34,994.31
2012,01,21,11,35,994.35
2012,01,21,11,36,994.28
2012,01,21,11,37,994.35
2012,01,21,11,38,994.35
2012,01,21,11,39,994.31
2012,01,21,11,40,994.38
2012,01,21,11,41,994.28
2012,01,21,11,42,994.35
2012,01,21,11,43,994.38
2012,01,21,11,44,994.38
2012,01,21,11,45,994.45
2012,01,21,11,46,994.35
2012,01,21,11,47,994.38
2012,01,21,11,48,994.35
2012,01,21,11,49,994.35
2012,01,21,11,50,994.38
2012,01,21,11,51,994.41
2012,01,21,11,52,994.54
2012,01,21,11,53,994.58
2012,01,21,11,54,994.52
2012,01,21,11,55,994.65
2012,01,21,11,56,994.65
2012,01,21,11,57,994.68
2012,01,21,11,58,994.81
2012,01,21,11,59,994.72
2012,01,21,12,00,994.62
2012,01,21,12,01,994.62
2012,01,21,12,02,994.55
2012,01,21,12,03,994.45
2012,01,21,12,04,994.64
2012,01,21,12,05,994.72
2012,01,21,12,06,994.65
2012,01,21,12,07,994.68
2012,01,21,12,08,994.79
2012,01,21,12,09,994.72
2012,01,21,12,10,994.58
2012,01,21,12,11,994.58
2012,01,21,12,12,994.65
2012,01,21,12,13,994.72
2012,01,21,12,14,994.79
2012,01,21,12,15,994.79
2012,01,21,12,16,994.82
2012,01,21,12,17,994.82
2012,01,21,12,18,994.82
2012,01,21,12,19,994.82
2012,01,21,12,20,994.85
2012,01,21,12,21,994.85
2012,01,21,12,22,994.85
2012,01,21,12,23,994.85
2012,01,21,12,24,994.85
2012,01,21,12,25,994.82
2012,01,21,12,26,994.85
2012,01,21,12,27,994.89
2012,01,21,12,28,994.92
2012,01,21,12,29,994.99
2012,01,21,12,30,995.02
2012,01,21,12,31,994.99
2012,01,21,12,32,995.02
2012,01,21,12,33,995.09
2012,01,21,12,34,995.09
2012,01,21,12,35,995.25
2012,01,21,12,36,995.33
2012,01,21,12,37,995.29
2012,01,21,12,38,995.40
2012,01,21,12,39,995.36
2012,01,21,12,40,995.36
2012,01,21,12,41,995.36
2012,01,21,12,42,995.43
2012,01,21,12,43,995.56
2012,01,21,12,44,995.56
2012,01,21,12,45,995.50
2012,01,21,12,46,995.56
2012,01,21,12,47,995.60
2012,01,21,12,48,995.60
2012,01,21,12,49,995.63
2012,01,21,12,50,995.67
2012,01,21,12,51,995.70
2012,01,21,12,52,995.80
2012,01,21,12,53,995.63
2012,01,21,12,54,995.76
2012,01,21,12,55,995.73
2012,01,21,12,56,995.77
2012,01,21,12,57,995.77
2012,01,21,12,58,995.84
2012,01,21,12,59,995.84
2012,01,21,13,00,995.87
2012,01,21,13,01,995.87
2012,01,21,13,02,995.94
2012,01,21,13,03,995.94
2012,01,21,13,04,996.01
2012,01,21,13,05,996.04
2012,01,21,13,06,996.07
2012,01,21,13,07,996.07
2012,01,21,13,08,996.17
2012,01,21,13,09,996.28
2012,01,21,13,10,996.21
2012,01,21,13,11,996.31
2012,01,21,13,12,996.38
2012,01,21,13,13,996.28
2012,01,21,13,14,996.31
2012,01,21,13,15,996.31
2012,01,21,13,16,996.38
2012,01,21,13,17,996.48
2012,01,21,13,18,996.51
2012,01,21,13,19,996.41
2012,01,21,13,20,996.34
2012,01,21,13,21,996.38
2012,01,21,13,22,996.38
2012,01,21,13,23,996.45
2012,01,21,13,24,996.45
2012,01,21,13,25,996.41
2012,01,21,13,26,996.41
2012,01,21,13,27,996.45
2012,01,21,13,28,996.48
2012,01,21,13,29,996.72
2012,01,21,13,30,996.75
2012,01,21,13,31,996.82
2012,01,21,13,32,996.75
2012,01,21,13,33,996.78
2012,01,21,13,34,996.85
2012,01,21,13,35,996.78
2012,01,21,13,36,996.89
2012,01,21,13,37,996.85
2012,01,21,13,38,996.82
2012,01,21,13,39,996.75
2012,01,21,13,40,996.84
2012,01,21,13,41,996.89
2012,01,21,13,42,996.82
2012,01,21,13,43,997.05
2012,01,21,13,44,997.02
2012,01,21,13,45,997.12
2012,01,21,13,46,997.12
2012,01,21,13,47,997.09
2012,01,21,13,48,997.02
2012,01,21,13,49,997.02
2012,01,21,13,50,997.05
2012,01,21,13,51,997.09
2012,01,21,13,52,997.12
2012,01,21,13,53,997.19
2012,01,21,13,54,997.29
2012,01,21,13,55,997.33
2012,01,21,13,56,997.39
2012,01,21,13,57,997.36
2012,01,21,13,58,997.39
2012,01,21,13,59,997.39
2012,01,21,14,00,997.46
2012,01,21,14,01,997.53
2012,01,21,14,02,997.63
2012,01,21,14,03,997.53
2012,01,21,14,04,997.53
2012,01,21,14,05,997.46
2012,01,21,14,06,997.46
2012,01,21,14,07,997.53
2012,01,21,14,08,997.56
2012,01,21,14,09,997.63
2012,01,21,14,10,997.77
2012,01,21,14,11,997.80
2012,01,21,14,12,997.83
2012,01,21,14,13,997.94
2012,01,21,14,14,998.04
2012,01,21,14,15,998.10
2012,01,21,14,16,998.10
2012,01,21,14,17,998.21
2012,01,21,14,18,998.17
2012,01,21,14,19,998.17
2012,01,21,14,20,998.10
2012,01,21,14,21,998.14
2012,01,21,14,22,998.21
2012,01,21,14,23,998.27
2012,01,21,14,24,998.31
2012,01,21,14,25,998.24
2012,01,21,14,26,998.31
2012,01,21,14,27,998.24
2012,01,21,14,28,998.34
2012,01,21,14,29,998.38
2012,01,21,14,30,998.31
2012,01,21,14,31,998.27
2012,01,21,14,32,998.21
2012,01,21,14,33,998.34
2012,01,21,14,34,998.43
2012,01,21,14,35,998.51
2012,01,21,14,36,998.58
2012,01,21,14,37,998.70
2012,01,21,14,38,998.65
2012,01,21,14,39,998.58
2012,01,21,14,40,998.61
2012,01,21,14,41,998.65
2012,01,21,14,42,998.71
2012,01,21,14,43,998.75
2012,01,21,14,44,998.78
2012,01,21,14,45,998.71
2012,01,21,14,46,998.75
2012,01,21,14,47,998.85
2012,01,21,14,48,998.88
2012,01,21,14,49,998.92
2012,01,21,14,50,998.92
2012,01,21,14,51,998.95
2012,01,21,14,52,998.99
2012,01,21,14,53,999.02
2012,01,21,14,54,999.09
2012,01,21,14,55,999.15
2012,01,21,14,56,999.15
2012,01,21,14,57,999.19
2012,01,21,14,58,999.22
2012,01,21,14,59,999.29
2012,01,21,15,00,999.29
2012,01,21,15,01,999.36
2012,01,21,15,02,999.39
2012,01,21,15,03,999.36
2012,01,21,15,04,999.36
2012,01,21,15,05,999.36
2012,01,21,15,06,999.32
2012,01,21,15,07,999.36
2012,01,21,15,08,999.43
2012,01,21,15,09,999.43
2012,01,21,15,10,999.63
2012,01,21,15,11,999.70
2012,01,21,15,12,999.73
2012,01,21,15,13,999.73
2012,01,21,15,14,999.80
2012,01,21,15,15,999.87
2012,01,21,15,16,999.93
2012,01,21,15,17,999.97
2012,01,21,15,18,999.97
2012,01,21,15,19,999.93
2012,01,21,15,20,999.87
2012,01,21,15,21,999.87
2012,01,21,15,22,999.90
2012,01,21,15,23,999.87
2012,01,21,15,24,999.93
2012,01,21,15,25,999.93
2012,01,21,15,26,999.97
2012,01,21,15,27,1000.07
2012,01,21,15,28,1000.17
2012,01,21,15,29,1000.20
2012,01,21,15,30,1000.24
2012,01,21,15,31,1000.17
2012,01,21,15,32,1000.24
2012,01,21,15,33,1000.31
2012,01,21,15,34,1000.31
2012,01,21,15,35,1000.48
2012,01,21,15,36,1000.51
2012,01,21,15,37,1000.61
2012,01,21,15,38,1000.61
2012,01,21,15,39,1000.81
2012,01,21,15,40,1000.78
2012,01,21,15,41,1000.75
2012,01,21,15,42,1000.78
2012,01,21,15,43,1000.81
2012,01,21,15,44,1000.85
2012,01,21,15,45,1000.88
2012,01,21,15,46,1000.85
2012,01,21,15,47,1000.85
2012,01,21,15,48,1000.85
2012,01,21,15,49,1000.78
2012,01,21,15,50,1000.75
2012,01,21,15,51,1000.87
2012,01,21,15,52,1000.92
2012,01,21,15,53,1000.95
2012,01,21,15,54,1001.07
2012,01,21,15,55,1001.08
2012,01,21,15,56,1001.12
2012,01,21,15,57,1001.08
2012,01,21,15,58,1001.12
2012,01,21,15,59,1001.19
2012,01,21,16,00,1001.15
2012,01,21,16,01,1001.15
2012,01,21,16,02,1001.12
2012,01,21,16,03,1001.15
2012,01,21,16,04,1001.05
2012,01,21,16,05,1001.08
2012,01,21,16,06,1001.19
2012,01,21,16,07,1001.25
2012,01,21,16,08,1001.29
2012,01,21,16,09,1001.29
2012,01,21,16,10,1001.32
2012,01,21,16,11,1001.32
2012,01,21,16,12,1001.36
2012,01,21,16,13,1001.32
2012,01,21,16,14,1001.32
2012,01,21,16,15,1001.32
2012,01,21,16,16,1001.36
2012,01,21,16,17,1001.39
2012,01,21,16,18,1001.32
2012,01,21,16,19,1001.32
2012,01,21,16,20,1001.36
2012,01,21,16,21,1001.29
2012,01,21,16,22,1001.29
2012,01,21,16,23,1001.25
2012,01,21,16,24,1001.29
2012,01,21,16,25,1001.32
2012,01,21,16,26,1001.29
2012,01,21,16,27,1001.19
2012,01,21,16,28,1001.12
2012,01,21,16,29,1001.25
2012,01,21,16,30,1001.25
2012,01,21,16,31,1001.25
2012,01,21,16,32,1001.36
2012,01,21,16,33,1001.36